Lapse_Rate
6.7 6.7 6.7 6.5 6.4 6.7 6.5 7.6 7.3 7.0 6.9 6.8 6.4 6.3 6.2 6.4 6.1 6.0 5.5 6.2 6.1 6.2 6.0 5.9 5.9 5.7 5.6 5.5 5.6 5.6 5.7 5.5 5.4 5.4 5.4 5.5 5.4 5.4 5.4 5.5 5.5 5.5 5.6 5.7 5.8 5.8 5.9 6.0 6.0
6.4 6.5 6.6 6.3 6.3 7.0 6.8 7.3 7.2 7.0 6.9 6.5 6.4 6.3 6.0 6.1 6.4 5.7 6.3 5.5 5.9 6.3 6.1 6.1 6.1 5.8 5.6 5.6 5.6 5.6 5.6 5.5 5.5 5.5 5.5 5.4 5.3 5.3 5.3 5.5 5.6 5.6 5.6 5.6 5.8 5.8 5.9 6.0 6.1
6.3 6.3 6.2 6.9 7.0 5.9 7.0 6.9 7.1 6.7 6.6 6.5 6.3 6.0 5.8 5.5 5.4 5.4 5.8 5.1 4.9 6.2 6.2 6.1 6.1 5.9 5.8 5.7 5.7 5.7 5.6 5.6 5.6 5.6 5.6 5.4 5.4 5.4 5.4 5.3 5.5 5.7 5.6 5.7 5.9 6.0 5.9 6.1 6.2
6.0 6.0 6.3 6.6 6.8 7.2 7.0 6.4 6.9 6.6 6.7 6.6 6.3 6.1 6.0 5.3 5.3 5.3 5.0 5.8 5.0 4.9 5.3 6.1 6.0 6.0 5.9 5.8 5.8 5.8 5.7 5.6 5.6 5.7 5.6 5.4 5.5 5.5 5.5 5.6 5.6 5.5 5.6 5.7 5.8 6.0 6.0 6.2 6.2
6.1 6.6 7.1 7.5 7.3 7.0 6.9 6.3 6.6 6.6 6.5 6.4 6.4 5.7 5.9 5.1 5.2 5.1 5.0 6.3 5.1 5.2 6.1 6.0 6.1 6.0 6.0 5.9 5.8 5.8 5.8 5.7 5.6 5.6 5.6 5.4 5.4 5.5 5.5 5.6 5.6 5.6 5.6 5.5 5.7 5.8 5.9 6.1 6.2
6.6 6.8 8.1 8.9 6.9 6.7 6.7 6.5 6.7 6.7 6.5 6.1 5.9 5.6 6.2 6.0 5.0 5.0 5.1 4.9 5.4 5.4 6.1 6.1 6.2 6.2 6.1 6.0 5.8 5.7 5.8 5.7 5.6 5.5 5.4 5.3 5.4 5.3 5.3 5.3 5.3 5.4 5.5 5.4 5.6 5.8 5.7 5.9 6.0
8.0 9.2 9.2 8.6 7.5 7.1 6.4 6.6 6.6 6.9 6.8 6.5 6.3 5.9 6.6 6.0 5.0 4.9 5.2 5.3 5.4 5.3 5.9 6.1 6.2 6.2 6.1 6.0 5.7 5.6 5.7 5.6 5.6 5.6 5.4 5.2 5.2 5.2 5.2 5.1 5.1 5.1 5.3 5.4 5.5 5.7 5.7 5.8 5.8
7.7 8.8 9.0 9.0 8.6 7.1 6.6 6.5 6.5 6.5 6.5 6.3 6.2 6.4 6.5 5.4 5.5 5.0 5.2 5.4 5.4 5.3 4.9 6.0 6.0 5.9 5.9 5.7 5.5 5.5 5.5 5.6 5.7 5.8 5.8 5.6 5.2 5.0 5.1 5.3 5.2 5.2 5.3 5.4 5.5 5.7 5.8 5.8 5.7
7.7 7.9 9.1 8.9 8.4 7.2 6.7 6.6 6.5 6.4 6.4 6.2 6.0 6.2 6.2 6.0 5.1 5.0 5.0 5.2 5.3 5.2 5.2 4.8 4.9 5.9 5.8 5.6 5.4 5.3 5.3 5.6 5.6 5.6 5.6 5.4 5.1 4.8 5.3 5.2 5.3 5.3 5.3 5.4 5.5 5.6 5.7 5.9 5.8
8.5 8.0 9.0 9.1 9.0 7.3 7.0 6.7 6.5 6.1 6.2 5.9 5.6 5.7 6.0 6.0 5.2 4.9 4.8 4.9 5.0 5.1 5.2 4.8 4.9 4.6 5.2 5.2 5.3 5.3 5.3 5.4 5.4 5.2 5.2 5.2 4.9 5.0 5.2 5.2 5.2 5.3 5.4 5.5 5.5 5.5 5.6 5.7 5.9
8.7 9.0 8.4 8.9 7.7 7.3 6.8 6.6 6.7 6.6 5.9 6.4 5.6 6.1 5.9 5.8 5.7 5.0 4.9 4.9 5.1 5.4 5.1 4.9 4.7 4.7 5.5 4.6 5.2 5.2 5.3 5.2 5.1 5.2 5.0 4.6 4.9 4.9 5.1 5.1 5.2 5.4 5.4 5.4 5.8 5.7 5.7 5.7 5.5
8.3 8.5 9.2 8.0 7.5 7.2 7.1 6.8 6.8 6.3 6.3 6.3 5.5 5.9 5.6 5.6 5.2 5.1 5.0 5.0 5.0 5.3 4.9 4.8 4.8 5.5 4.7 5.1 5.6 5.5 5.5 5.2 5.1 4.8 5.0 5.1 4.9 4.8 4.9 4.8 5.0 5.1 5.2 5.4 5.7 5.9 5.8 5.7 5.9
9.1 8.6 8.3 7.9 7.7 7.5 7.2 6.9 6.8 6.3 6.0 5.9 5.4 5.3 5.3 5.4 5.3 5.3 5.2 5.2 5.3 5.0 5.4 5.1 4.8 5.9 5.9 5.6 5.2 5.3 5.3 5.1 4.8 4.9 4.8 5.0 4.8 5.1 5.0 4.9 5.0 5.3 5.3 5.4 5.8 5.7 5.9 5.9 5.5
9.2 9.0 8.0 7.9 7.9 7.9 7.7 7.0 6.9 6.4 6.2 5.7 5.4 5.4 5.5 5.5 5.5 5.6 5.4 5.4 5.2 5.1 5.0 5.0 5.5 5.8 5.8 5.7 5.4 5.0 5.4 5.1 5.1 4.9 4.7 5.0 4.8 5.0 5.1 5.1 5.3 5.3 5.4 5.1 5.6 5.6 5.7 5.8 5.7
8.4 8.3 8.3 8.3 8.2 8.3 7.7 7.4 7.7 6.5 6.3 6.1 6.0 5.8 5.8 5.8 5.7 5.5 5.4 5.4 5.3 5.2 5.1 5.2 5.6 5.7 5.6 5.8 5.8 5.6 5.5 5.4 5.3 5.3 5.1 5.2 5.1 5.4 5.3 5.2 5.3 5.4 5.4 5.3 5.4 5.4 5.6 5.6 5.6
9.0 9.1 7.2 8.9 8.3 7.6 6.1 8.1 7.2 6.6 6.4 6.5 6.6 6.3 6.1 6.0 5.9 5.7 5.4 5.5 5.4 5.3 5.1 5.7 5.5 5.4 5.8 5.9 5.8 5.9 5.7 5.7 5.5 5.4 5.4 5.5 5.3 5.6 5.6 5.4 5.3 5.2 5.2 5.2 5.2 5.3 5.3 5.3 5.4
9.1 7.2 7.6 9.1 8.5 8.4 7.6 8.5 7.4 7.1 7.0 7.0 6.9 6.6 6.2 6.0 5.9 5.5 5.3 5.3 5.5 5.1 5.7 5.8 5.8 5.5 5.5 5.7 6.0 5.9 5.7 5.7 5.8 5.7 5.6 5.6 5.5 5.6 5.7 5.6 5.4 5.3 5.3 5.2 4.9 4.8 4.9 5.4 5.4
8.7 7.4 9.2 9.3 8.5 8.5 9.2 9.2 7.9 7.4 7.4 7.3 7.0 6.7 6.4 6.3 6.1 5.8 5.4 5.4 5.4 5.5 5.1 5.8 5.8 5.7 5.9 5.9 5.8 5.8 5.7 5.6 5.6 5.6 5.7 5.7 5.9 5.6 5.8 5.5 5.5 5.3 5.3 5.1 5.1 5.1 5.2 5.3 5.3
8.5 8.7 9.5 9.5 9.3 9.1 9.4 9.4 8.6 7.8 7.7 7.4 7.1 7.0 6.7 6.5 6.3 6.2 5.9 5.8 5.5 5.5 5.3 5.8 5.8 5.8 5.9 5.9 5.9 5.9 5.9 5.9 5.8 5.8 5.8 5.6 5.8 5.8 5.5 5.4 5.4 5.3 5.3 5.4 5.1 5.1 5.2 5.3 5.4
9.4 9.6 9.2 9.1 9.1 8.9 9.4 9.3 9.4 8.2 7.7 7.7 7.4 7.3 7.1 6.8 6.5 6.4 6.2 6.2 6.1 5.8 5.5 6.0 5.9 5.9 5.9 5.8 5.7 5.5 6.0 5.8 5.7 5.6 5.5 5.7 5.8 5.9 5.8 5.6 5.5 5.3 5.2 5.2 5.2 5.1 5.3 5.4 5.4
9.5 9.3 8.3 8.4 9.4 9.5 9.5 9.2 8.6 9.2 8.0 7.8 7.6 7.5 7.4 7.1 6.9 6.8 6.6 6.5 6.4 6.2 6.3 6.4 6.2 6.1 6.0 5.8 6.1 6.0 6.0 5.9 5.7 5.5 5.9 5.9 6.0 6.0 6.0 5.8 5.5 5.3 5.2 5.0 5.1 5.2 5.4 5.5 5.3
9.2 8.8 9.3 9.4 9.6 8.4 8.5 7.3 7.7 9.0 8.5 8.1 8.0 7.6 7.4 7.3 7.0 7.0 6.9 6.8 6.6 6.3 6.2 6.8 6.7 6.6 6.5 6.2 6.1 6.1 6.2 6.1 6.2 6.1 6.0 6.0 6.1 5.9 5.9 5.9 5.7 5.5 5.3 5.1 5.0 5.1 5.4 5.2 5.2
8.4 8.8 9.2 9.5 9.2 9.0 8.6 9.0 9.1 9.5 8.9 8.6 8.3 8.2 7.8 7.7 7.4 7.5 7.1 7.0 6.7 6.3 6.2 6.5 6.5 6.6 6.6 6.6 6.6 6.5 6.4 6.5 6.3 6.1 5.8 6.0 6.3 6.5 6.3 6.2 5.9 5.8 5.5 5.5 5.2 5.0 5.2 5.5 5.3
9.4 9.3 9.5 9.6 9.5 9.6 9.1 8.9 9.2 8.1 9.4 8.9 8.9 8.7 8.3 8.0 7.8 7.4 7.4 7.2 6.9 6.6 6.1 6.6 6.8 6.7 6.6 6.7 6.8 6.8 6.7 6.5 6.4 6.4 6.6 6.4 6.1 6.2 6.3 6.4 6.3 6.0 5.7 5.4 5.4 5.3 5.4 5.5 5.5
8.9 9.5 9.7 9.3 9.8 9.4 9.6 9.6 8.9 8.8 8.9 8.9 8.7 8.7 8.7 8.4 7.9 7.9 7.5 7.3 6.9 6.6 6.3 6.9 6.9 6.8 6.6 7.0 6.9 6.9 6.9 6.9 6.6 6.5 6.4 6.4 6.2 6.2 6.3 6.3 6.4 6.3 6.3 5.9 5.6 5.6 5.8 5.8 5.9
9.3 9.5 9.6 8.9 8.9 6.9 8.8 9.7 9.2 8.8 8.6 8.9 8.9 8.3 8.7 8.5 8.2 8.0 7.9 7.6 7.2 6.7 6.4 7.0 7.1 7.1 7.1 6.5 6.9 6.7 6.5 6.6 6.8 6.8 6.7 6.4 6.2 5.8 5.8 5.9 6.3 6.2 6.1 6.1 6.1 5.9 5.7 5.7 5.8
9.1 9.2 9.5 8.4 7.9 8.8 9.2 9.2 9.6 8.7 8.5 8.3 8.9 8.9 8.8 8.2 8.2 7.8 7.7 7.4 6.8 7.2 7.3 7.2 7.0 7.0 7.0 6.8 6.6 6.7 6.4 6.5 6.5 6.4 6.4 6.3 6.8 6.2 6.0 6.0 5.9 6.0 6.1 6.2 6.1 6.0 5.9 5.6 5.6
9.6 9.0 9.1 9.6 9.6 9.2 9.6 8.8 9.5 9.1 8.7 8.4 8.3 8.4 8.9 8.9 8.7 8.5 7.8 7.4 7.3 7.3 7.2 7.1 6.8 6.9 6.8 6.5 6.6 6.9 6.9 6.4 6.3 6.3 6.4 6.2 5.9 6.2 6.3 6.2 6.0 5.9 5.9 6.0 6.2 6.3 6.1 5.7 5.4
9.6 9.4 9.6 9.2 9.4 9.2 9.4 9.0 8.1 9.1 8.8 8.6 8.0 8.3 8.7 8.7 8.8 8.7 8.5 8.2 7.6 7.2 7.1 6.8 6.8 6.9 6.6 6.8 6.7 6.7 6.5 6.4 6.1 5.6 6.6 6.4 5.7 5.5 5.7 6.3 6.2 6.1 6.0 6.0 5.8 5.7 6.0 6.2 5.7
9.5 9.6 9.6 9.6 9.7 9.6 9.7 9.1 9.0 8.8 8.5 8.0 8.2 8.5 8.7 8.5 8.5 8.4 8.3 7.9 7.4 7.0 6.8 6.7 6.5 6.5 6.5 6.5 6.5 6.5 6.3 6.0 5.7 5.3 5.6 5.8 5.2 5.2 5.3 5.6 5.9 5.8 6.0 6.0 5.9 5.7 5.7 6.2 5.7
Wind_Speed
12 12 11 7 5 4 5 13 15 13 10 13 7 11 14 17 12 10 23 21 24 20 22 19 17 17 16 17 18 17 13 12 13 12 11 10 10 10 12 12 10 10 11 13 13 13 13 13 13
9 4 6 6 4 9 4 10 12 11 11 11 10 5 16 16 11 25 21 22 23 22 22 21 17 17 16 17 17 16 13 11 10 10 9 8 9 8 11 11 10 9 11 10 11 14 12 12 12
14 5 9 5 5 7 6 8 11 10 14 10 6 8 10 9 19 18 25 23 24 20 24 22 17 17 16 16 16 15 13 11 10 10 10 9 10 10 8 9 10 10 9 10 9 10 11 10 10
5 6 5 5 11 9 13 6 12 10 8 7 10 12 8 6 18 20 24 18 21 20 26 20 18 17 16 15 14 14 13 12 11 10 9 9 8 7 7 7 8 7 9 9 8 8 9 8 9
9 5 3 6 11 8 10 5 13 5 3 5 2 15 12 12 11 22 23 17 17 20 25 20 17 17 16 15 14 13 11 9 10 9 8 7 6 5 6 6 6 6 5 7 6 5 7 8 8
7 2 3 8 9 6 7 5 8 9 7 8 13 15 7 8 17 19 22 21 18 20 22 21 17 16 15 14 12 11 10 9 8 7 6 5 4 4 3 3 3 2 3 3 4 4 5 6 6
9 5 10 11 6 6 8 4 3 6 8 8 2 11 10 16 20 18 17 19 15 19 18 19 19 16 14 12 11 9 9 8 7 6 4 3 3 3 3 2 1 1 2 2 3 4 5 5 5
5 2 12 7 11 6 6 7 4 8 12 6 7 8 16 19 21 18 14 15 15 17 18 16 21 18 16 14 10 9 7 6 6 5 2 2 5 5 8 8 6 2 3 4 5 5 6 6 7
4 3 8 12 11 8 7 9 8 7 9 10 2 15 21 23 21 18 15 14 13 12 17 16 16 18 15 14 13 8 8 7 7 6 7 9 9 8 11 13 9 1 4 4 6 7 8 8 10
6 2 13 12 15 10 4 9 8 7 8 10 8 21 23 22 19 18 17 15 15 14 15 14 14 15 16 14 17 11 8 6 9 6 4 17 9 11 14 3 4 6 8 8 10 9 9 10 15
2 8 8 14 10 8 7 8 5 11 6 13 14 20 21 19 18 18 17 17 16 16 12 15 12 12 14 8 14 11 7 9 9 9 12 9 10 9 13 11 4 9 13 10 15 13 13 15 11
6 7 8 7 7 8 9 5 3 10 2 15 15 18 20 20 18 16 16 16 17 16 14 14 14 11 10 11 11 8 8 9 7 11 11 7 7 13 8 11 3 13 11 9 7 9 11 14 10
1 11 5 7 6 10 8 6 5 12 6 15 16 17 18 18 17 16 15 14 15 16 15 13 12 11 9 4 7 8 9 8 10 7 11 10 11 5 11 12 7 9 13 12 5 4 7 11 9
3 7 8 9 9 6 9 5 8 10 12 15 15 16 16 17 17 14 14 14 13 14 15 14 14 13 12 10 7 5 8 13 13 12 15 14 12 8 12 10 7 11 15 7 2 6 6 5 10
9 11 8 8 8 14 23 5 9 11 13 15 16 14 16 17 16 14 13 12 12 11 12 13 12 14 13 12 8 12 13 12 11 12 12 12 12 12 12 7 6 9 14 3 4 6 5 4 9
10 10 15 3 5 22 20 13 11 13 13 14 15 14 14 15 16 14 13 13 13 11 11 11 11 13 17 14 11 11 13 14 12 9 15 12 14 14 9 5 8 12 10 6 5 6 1 2 7
5 6 19 12 7 2 13 18 13 13 13 13 13 14 14 13 15 15 15 13 13 12 12 11 11 10 10 11 9 9 8 10 12 13 15 15 16 14 11 8 9 10 8 1 2 6 3 4 3
11 19 4 3 6 3 5 8 14 12 13 13 13 15 15 15 15 16 15 15 13 13 11 11 10 10 9 8 8 7 7 10 11 9 13 15 16 11 9 11 7 9 3 5 6 7 6 6 8
15 25 15 7 11 3 7 4 18 15 13 14 15 16 17 16 17 16 16 15 15 13 14 13 12 11 9 9 7 7 9 7 7 9 19 14 10 11 9 7 6 7 7 7 5 6 5 7 3
9 5 10 14 4 5 5 5 7 17 16 15 14 14 16 16 17 16 17 16 16 14 12 13 13 12 11 9 8 6 7 7 8 8 4 11 11 11 12 9 7 8 7 9 8 6 2 2 6
11 8 11 16 12 7 10 11 13 14 16 14 15 15 16 16 16 16 15 16 15 14 15 14 14 13 12 11 7 5 3 3 3 4 6 8 12 12 11 11 7 7 8 5 2 4 4 4 4
4 19 10 5 3 5 14 5 18 14 16 16 16 17 16 16 16 15 16 14 15 13 13 14 14 14 13 12 9 8 4 5 3 7 7 5 10 10 12 13 9 5 3 2 5 7 5 6 6
12 13 10 12 11 11 3 2 13 10 18 18 17 19 18 18 18 16 16 15 12 14 13 13 13 12 11 13 12 8 9 7 7 7 6 4 5 9 11 11 8 7 7 8 6 5 8 3 4
7 10 13 13 13 4 11 16 17 5 4 6 6 16 19 18 16 15 13 13 12 10 10 12 13 13 12 12 13 11 9 6 4 3 4 5 8 6 6 8 8 6 6 5 5 5 8 5 5
11 16 10 6 10 5 7 9 7 4 8 7 5 5 13 18 15 16 15 13 11 11 11 10 12 11 12 13 12 12 11 9 9 8 8 5 1 6 9 8 8 6 7 4 3 4 6 5 6
11 15 7 0 5 2 21 4 12 14 11 8 6 5 4 11 17 14 13 12 10 7 8 9 9 10 12 12 12 11 11 9 7 8 6 6 5 7 2 6 6 7 6 5 4 5 5 6 4
14 16 15 14 14 15 9 5 6 13 12 10 10 8 5 3 5 6 3 5 5 5 5 7 7 9 10 12 9 10 9 9 7 7 4 6 9 8 6 6 7 6 5 5 3 5 3 4 5
15 13 14 6 4 7 7 7 8 14 11 11 11 11 10 10 7 6 6 6 4 5 6 4 5 7 6 8 2 1 3 2 4 3 6 7 6 8 3 5 5 5 6 4 5 5 6 2 4
11 14 16 16 6 7 11 11 20 13 12 12 12 12 12 11 10 9 7 7 5 4 4 7 6 10 6 8 6 4 3 4 4 4 5 7 7 6 4 5 3 3 6 5 3 4 2 2 4
18 14 18 12 14 10 9 10 11 14 10 10 13 12 12 11 10 9 9 7 6 9 8 9 9 6 5 5 5 4 4 3 4 3 5 6 6 4 4 7 6 5 5 5 5 6 6 4 5
Wind_Direction
177 198 233 259 267 184 39 91 92 107 104 94 81 63 74 34 32 95 132 141 131 137 133 138 132 133 136 136 134 135 134 131 128 127 124 120 116 109 102 103 103 115 116 108 107 104 108 108 111
230 203 248 277 151 68 51 82 78 93 99 99 96 55 84 66 95 128 121 146 144 132 149 139 132 134 135 132 134 137 136 135 134 129 122 120 118 114 106 109 108 95 108 105 116 113 116 114 113
255 237 270 296 46 58 110 104 78 94 126 116 105 55 37 84 125 131 133 147 137 148 140 126 138 134 135 136 135 135 135 137 132 122 115 107 101 100 105 112 126 113 103 105 106 117 118 115 111
216 208 212 180 71 57 76 75 105 113 149 71 105 93 89 137 133 128 143 140 138 153 128 136 141 140 139 137 136 135 137 142 136 120 111 105 102 107 107 91 92 95 128 116 118 127 127 126 117
227 241 349 118 73 76 87 85 88 296 74 117 7 89 113 117 123 137 139 143 169 139 123 143 145 141 140 140 141 138 135 126 118 118 114 106 98 84 72 68 95 107 94 111 127 115 131 138 136
268 77 192 73 82 116 101 81 76 95 77 87 106 110 123 149 140 153 154 150 185 129 135 138 143 144 145 145 145 140 136 131 123 118 113 113 117 120 119 124 87 68 92 135 149 156 152 143 156
260 71 48 73 134 76 109 133 126 102 119 88 100 96 131 173 148 158 165 158 159 129 145 152 159 153 152 151 151 143 140 135 128 122 123 156 168 168 131 86 123 176 218 196 191 200 182 191 185
295 54 86 78 75 94 108 112 75 77 70 114 336 131 152 152 154 156 162 159 158 146 144 162 157 163 166 162 159 159 154 148 146 146 188 241 230 226 183 189 177 207 263 233 230 215 202 214 211
230 303 58 66 70 120 164 117 65 87 129 57 65 135 139 147 155 159 160 165 155 166 149 166 164 163 171 168 164 177 178 175 175 97 32 323 331 337 256 110 120 173 271 245 235 233 227 219 223
287 326 70 26 59 97 124 114 142 115 124 104 109 115 142 158 158 161 167 171 161 184 162 158 163 171 171 186 150 194 170 187 109 112 81 268 299 303 313 13 148 214 230 236 230 218 228 226 243
13 68 76 62 47 84 103 117 183 140 111 132 141 145 154 163 167 169 174 177 170 183 174 161 188 182 155 188 156 178 163 139 168 184 199 244 287 294 292 274 218 242 196 253 198 204 226 233 265
116 69 61 88 101 114 89 134 129 104 102 109 138 154 162 168 173 175 180 178 173 181 181 176 182 193 183 159 175 150 138 176 188 202 218 245 265 279 270 290 261 249 257 261 224 235 221 280 232
35 101 95 109 122 97 128 68 135 105 124 117 139 153 165 175 176 180 180 181 179 181 186 193 188 178 212 208 171 167 183 187 203 215 229 231 272 292 248 248 275 294 292 281 286 236 187 249 269
102 102 137 160 128 132 108 124 155 124 154 130 147 157 168 181 181 181 187 182 192 178 181 193 190 173 203 219 202 171 186 210 232 210 243 207 246 236 262 269 267 252 258 254 137 221 264 249 254
144 174 169 150 161 93 43 209 94 133 142 148 162 169 165 175 180 184 191 181 190 180 178 195 196 178 190 208 196 189 213 227 234 238 234 244 234 231 251 265 264 263 249 173 206 264 233 269 279
221 231 51 154 169 120 124 131 134 151 158 165 169 168 168 174 178 185 187 192 175 185 178 196 200 198 179 198 193 218 210 219 227 233 250 214 245 253 257 245 245 240 244 234 217 210 255 216 259
160 40 272 149 156 134 187 114 141 162 169 170 176 172 182 184 186 180 189 203 183 180 176 194 201 212 173 192 161 210 223 217 224 221 232 231 214 227 235 239 237 243 231 118 244 259 182 229 247
269 174 273 130 163 176 234 128 150 174 179 173 178 174 189 192 197 181 200 189 198 180 184 196 199 207 209 185 156 201 230 229 222 226 237 228 235 218 210 242 235 225 266 225 205 214 225 229 241
223 257 194 179 109 241 231 239 150 178 193 176 182 179 187 199 190 194 194 194 193 197 179 196 199 187 204 207 183 193 218 222 218 215 234 214 226 231 218 255 244 228 236 231 249 241 230 276 311
242 259 28 2 96 252 262 242 167 169 194 183 193 187 192 198 191 198 191 200 199 187 204 194 206 195 203 209 229 178 195 221 218 242 217 214 232 231 214 236 237 227 238 231 233 250 207 281 273
242 113 108 249 242 225 313 346 315 176 185 193 186 197 201 195 201 185 198 200 202 193 185 203 199 201 204 227 207 207 197 250 245 261 230 229 225 227 227 228 229 234 247 257 237 238 152 243 310
36 309 283 254 260 122 272 166 272 191 177 189 199 195 203 197 200 182 196 202 197 192 195 192 196 196 202 205 230 205 210 225 216 220 226 194 229 236 238 234 234 218 222 222 237 246 235 215 228
152 215 286 301 276 156 237 118 199 203 175 176 202 200 205 199 189 200 193 192 215 188 190 184 191 194 204 194 226 202 214 218 208 241 111 199 228 224 232 221 223 214 224 199 207 206 234 201 220
317 266 246 249 244 254 225 219 79 257 37 113 197 200 200 197 202 193 198 194 197 203 182 179 184 190 197 200 206 223 233 219 244 205 224 220 242 182 243 232 217 208 251 222 187 201 227 203 226
244 257 260 287 244 345 210 277 114 164 97 103 146 184 206 192 207 193 200 204 200 206 189 184 173 195 194 206 210 212 227 229 226 218 222 237 238 218 188 223 215 212 214 243 266 212 203 223 227
254 269 280 168 321 203 288 250 122 123 114 111 125 149 210 220 184 214 194 204 194 208 175 192 174 192 203 202 212 214 215 216 221 222 219 227 223 271 205 193 221 216 210 217 208 228 236 184 219
227 251 252 174 247 253 178 329 227 124 123 125 114 118 114 150 81 124 216 158 144 194 183 201 200 206 219 202 210 222 219 238 230 245 232 235 217 238 208 206 200 194 214 236 193 230 206 171 222
245 244 292 242 242 312 18 354 290 174 135 129 128 117 107 100 110 136 153 117 145 166 167 167 184 211 229 222 184 78 317 2 339 260 270 256 302 274 233 189 170 171 156 203 216 162 156 187 286
211 235 258 222 193 254 251 215 239 150 159 143 131 130 129 128 123 125 127 130 135 98 91 126 84 55 34 61 82 64 77 49 21 350 325 349 34 301 263 166 111 204 165 172 230 287 211 255 292
237 254 238 242 228 264 309 116 83 85 126 136 121 128 123 126 127 133 133 128 99 82 64 66 91 107 113 115 111 109 157 184 200 251 283 320 94 76 215 216 227 227 199 198 171 275 321 337 284